EHI
0 0 0 0 0 0 0 0 0 0 0 0 0 0 0 0 0 0 0 0 0 0 0 0 0 0 0 0 0 0 0 0 0 0 0 0 0 0 0 0 0 0 0 0
0 0 0 0 0 0 0 0 0 0 0 0 0 0 0 0 0 0 0 0 0 0 0 0 0 0 0 0 0 0 0 0 0 0 0 0 0 0 0 0 0 0 0 0
0 0 0 0 0 0 0 0 0 0 0 0 0 0 0 0 0 0 0 0 0 0 0 0 0 0 0 0 0 0 0 0 0 0 0 0 0 0 0 0 0 0 0 0
0 0 0 0 0 0 0 0 0 0 0 0 0 0 0 0 0 0 0 0 0 0 0 0 0 0 0 0 0 0 0 0 0 0 0 0 0 0 0 0 0 0 0 0
0 0 0 0 0 0 0 0 0 0 0 0 0 0 0 0 0 0 0 0 0 0 0 0 0 0 0 0 0 0 0 0 0 0 0 0 0 0 0 0 0 0 0 0
0 0 0 0 0 0 0 0 0 0 0 0 0 0 0 0 0 0 0 0 0 0 0 0 0 0 0 0 0 0 0 0 0 0 0 0 0 0 0 0 0 0 0 0
0 0 0 0 0 0 0 0 0 0 0 0 0 0 0 0 0 0 0 0 0 0 0 0 0 0 0 0 0 0 0 0 0 0 0 0 0 0 0 0 0 0 0 0
0 0 0 0 0 0 0 0 0 0 0 0 0 0 0 0 0 0 0 0 0 0 0 0 0 0 0 0 0 0 0 0 0 0 0 0 0 0 0 0 0 0 0 0
0 0 0 0 0 0 0 0 0 0 0 0 0 0 0 0 0 0 0 0 0 0 0 0 0 0 0 0 0 0 0 0 0 0 0 0 0 0 0 0 0 0 0 0
0 0 0 0 0 0 0 0 0 0 0 0 0 0 0 0 0 0 0 0 0 0 0 0 0 0 0 0 0 0 0 0 0 0 0 0 0 0 0 0 0 0 0 0
0 0 0 0 0 0 0 0 0 0 0 0 0 0 0 0 0 0 0 0 0 0 0 0 0 0 0 0 0 0 0 0 0 0 0 0 0 0 0 0 0 0 0 0
0 0 0 0 0 0 0 0 0 0 0 0 0 0 0 0 0 0 0 0 0 0 0 0 0 0 0 0 0 0 0 0 0 0 0 0 0 0 0 0 0 0 0 0
0 0 0 0 0 0 0 0 0 0 0 0 0 0 0 0 0 0 0 0 0 0 0 0 0 0 0 0 0 0 0 0 0 0 0 0 0 0 0 0 0 0 0 0
0 0 0 0 0 0 0 0 0 0 0 0 0 0 0 0 0 0 0 0 0 0 0 0 0 0 0 0 0 0 0 0 0 0 0 0 0 0 0 0 0 0 0 0
0 0 0 0 0 0 0 0 0 0 0 0 0 0 0 0 0 0 0 0 0 0 0 0 0 0 0 0 0 0 0 0 0 0 0 0 0 0 0 0 0 0 0 0
0 0 0 0 0 0 0 0 0 0 0 0 0 0 0 0 0 0 0 0 0 0 0 0 0 0 0 0 0 0 0 0 0 0 0 0 0 0 0 0 0 0 0 0
0 0 0 0 0 0 0 0 0 0 0 0 0 0 0 0 0 0 0 0 0 0 0 0 0 0 0 0 0 0 0 0 0 0 0 0 0 0 0 0 0 0 0 0
0 0 0 0 0 0 0 0 0 0 0 0 0 0 0 0 0 0 0 0 0 0 0 0 0 0 0 0 0 0 0 0 0 0 0 0 0 0 0 0 0 0 0 0
0 0 0 0 0 0 0 0 0 0 0 0 0 0 0 0 0 0 0 0 0 0 0 0 0 0 0 0 0 0 0 0 0 0 0 0 0 0 0 0 0 0 0 0
0 0 0 0 0 0 0 0 0 0 0 0 0 0 0 0 0 0 0 0 0 0 0 0 0 0 0 0 0 0 0 0 0 0 0 0 0 0 0 0 0 0 0 0
0 0 0 0 0 0 0 0 0 0 0 0 0 0 0 0 0 0 0 0 0 0 0 0 0 0 0 0 0 0 0 0 0 0 0 0 0 0 0 0 0 0 0 0
0 0 0 0 0 0 0 0 0 0 0 0 0 0 0 0 0 0 0 0 0 0 0 0 0 0 0 0 0 0 0 0 0 0 0 0 0 0 0 0 0 0 0 0
0 0 0 0 0 0 0 0 0 0 0 0 0 0 0 0 0 0 0 0 0 0 0 0 0 0 0 0 0 0 0 0 0 0 0 0 0 0 0 0 0 0 0 0
0 0 0 0 0 0 0 0 0 0 0 0 0 0 0 0 0 0 0 0 0 0 0 0 0 0 0 0 0 0 0 0 0 0 0 0 0 0 0 0 0 0 0 0
0 0 0 0 0 0 0 0 0 0 0 0 0 0 0 0 0 0 0 0 0 0 0 0 0 0 0 0 0 0 0 0 0 0 0 0 0 0 0 0 0 0 0 0
0 0 0 0 0 0 0 0 0 0 0 0 0 0 0 0 0 0 0 0 0 0 0 0 0 0 0 0 0 0 0 0 0 0 0 0 0 0 0 0 0 0 0 0
Wind_Speed
9 8 12 15 16 11 8 9 11 9 6 7 12 13 12 10 9 9 9 8 8 8 7 7 7 7 7 7 7 7 7 8 7 6 6 6 7 6 5 5 6 7 7 7
8 16 16 11 12 13 13 13 13 9 5 5 9 14 12 12 12 11 11 10 9 7 6 6 7 7 7 8 7 7 7 7 7 7 6 5 5 5 6 5 6 8 8 8
16 8 11 14 13 14 16 15 13 10 5 6 8 12 15 14 14 13 12 10 9 9 8 7 6 6 6 6 7 6 6 6 7 7 5 4 4 3 4 5 6 7 8 8
13 12 10 13 15 15 15 12 11 10 7 6 6 10 10 12 14 14 13 11 10 9 8 6 5 4 4 4 3 4 4 4 5 5 6 7 7 7 7 5 5 6 8 8
9 8 11 15 15 13 9 5 8 9 8 9 9 10 8 8 12 12 12 11 10 8 7 6 4 4 3 3 3 3 3 3 4 5 6 7 7 6 4 4 5 5 6 7
10 6 8 10 10 9 5 3 5 6 6 13 14 13 10 9 11 8 8 7 7 7 6 5 3 3 2 2 2 2 3 3 3 4 5 6 6 6 5 5 5 4 4 4
10 11 8 5 7 8 8 6 5 7 9 11 9 12 11 7 7 7 7 5 6 6 6 5 4 3 3 2 2 2 3 3 3 3 4 5 6 6 6 5 4 4 3 3
9 9 12 9 11 8 12 12 9 7 6 5 7 13 8 4 5 6 5 4 4 5 5 5 5 4 4 3 3 2 2 2 1 2 3 3 4 3 3 4 3 3 3 3
6 6 7 10 9 10 10 13 9 7 5 6 7 7 7 4 5 5 6 6 6 6 5 5 4 4 3 3 2 2 2 2 1 0 0 0 1 1 2 1 2 1 1 2
3 5 4 5 5 10 10 6 5 8 8 11 9 11 8 6 8 8 8 7 7 6 5 4 4 4 3 3 2 2 2 2 1 1 1 0 0 1 1 1 1 1 1 1
6 5 4 4 10 11 9 11 9 6 6 7 8 7 5 8 8 9 9 8 7 6 5 4 4 4 3 3 2 2 2 2 1 1 1 1 0 0 0 0 0 0 0 1
6 4 6 9 8 8 10 12 12 10 9 8 8 8 3 2 1 3 4 4 4 4 4 4 4 4 3 3 3 2 2 2 1 1 1 1 1 1 0 0 1 0 0 0
3 4 4 5 6 8 9 11 12 10 7 8 11 9 3 2 2 1 2 2 2 2 3 3 3 4 4 3 3 3 3 2 2 2 1 1 1 1 0 0 1 1 1 1
3 4 7 9 5 4 9 11 12 12 10 11 14 13 10 7 5 4 3 3 3 3 3 3 3 4 4 3 3 3 2 2 2 2 2 1 1 1 0 0 1 1 1 1
3 6 8 11 11 10 11 12 13 16 16 14 14 15 14 11 8 7 6 5 4 4 5 5 5 5 4 4 3 3 2 2 2 2 2 1 1 1 1 1 1 1 1 1
3 5 6 10 11 11 13 14 15 16 16 18 17 19 14 13 9 7 6 6 6 6 6 5 5 5 5 5 4 3 3 3 3 2 2 1 1 1 1 1 1 1 1 1
3 3 4 8 8 7 12 14 16 15 15 14 18 18 11 12 11 9 8 8 8 7 6 6 5 5 5 4 4 4 3 2 3 2 1 1 1 1 0 1 1 1 1 2
7 6 5 5 4 12 10 8 12 16 16 14 13 12 11 11 11 9 6 6 7 6 5 5 4 3 2 2 2 3 3 3 2 2 1 1 1 0 0 1 0 1 1 1
12 9 6 5 8 11 9 7 7 9 13 10 12 12 10 10 9 8 4 4 5 4 3 3 2 2 2 2 3 4 4 3 2 2 1 1 1 1 1 0 1 1 1 1
10 10 8 7 7 9 8 5 5 7 12 6 7 9 9 7 8 7 3 2 2 1 1 0 0 1 2 2 3 4 4 4 3 2 2 1 1 1 1 1 1 1 1 1
6 7 11 11 10 9 7 5 2 6 7 5 5 7 7 6 7 6 4 2 1 1 1 1 1 1 1 2 3 3 3 3 2 2 1 1 1 1 1 1 1 1 1 2
7 6 8 8 10 11 3 1 3 4 4 5 5 6 6 7 6 5 4 3 2 2 1 1 1 1 1 2 3 3 2 1 1 2 2 2 1 1 1 1 1 1 2 2
7 6 4 6 7 4 1 2 2 2 4 5 5 6 6 6 6 5 4 3 3 2 2 2 2 2 2 2 2 2 1 1 2 2 2 1 1 1 1 2 1 1 1 1
5 3 5 7 7 5 5 4 3 3 4 5 5 6 5 6 5 5 3 3 2 2 2 2 2 2 2 2 3 2 2 2 2 2 2 2 2 2 1 1 1 1 1 0
5 4 6 10 8 8 7 5 5 5 5 5 5 5 5 5 5 4 3 3 2 1 1 1 1 0 1 2 2 2 2 1 1 2 2 1 1 2 1 1 0 1 0 1
7 8 9 11 7 7 7 4 3 4 5 4 5 5 5 4 5 4 3 2 1 0 1 1 1 0 1 1 1 2 1 1 1 1 1 1 1 1 1 1 1 2 1 1
Wind_Direction
186 201 209 207 213 233 249 248 248 247 228 221 235 242 241 239 233 239 242 241 237 228 219 210 198 186 180 187 194 197 196 194 187 187 191 199 208 209 211 211 208 211 212 211
202 221 220 219 218 227 240 252 259 269 260 240 254 257 252 242 238 231 233 235 235 234 230 221 203 188 187 191 195 199 200 197 192 192 192 193 192 201 208 208 210 212 214 214
218 221 210 221 221 222 229 232 242 252 277 268 273 265 247 243 240 237 232 230 233 230 231 231 215 197 192 195 193 193 197 199 198 191 181 181 192 205 207 211 213 214 215 216
235 237 225 218 221 220 235 229 238 246 249 250 229 267 246 236 232 230 228 225 227 229 232 231 224 209 193 189 180 186 196 200 200 189 187 189 197 208 212 208 209 207 210 216
228 216 221 227 225 221 237 225 230 237 243 255 240 258 256 233 235 228 223 220 218 215 218 225 215 198 180 162 161 180 194 205 204 195 195 199 209 214 212 204 209 209 208 210
250 249 227 231 235 230 226 228 246 242 236 246 231 239 261 221 231 227 220 214 205 201 203 203 195 165 154 146 155 176 187 205 206 200 199 201 209 210 208 210 211 211 208 206
235 239 237 233 222 219 208 194 207 211 218 239 208 228 247 217 222 222 220 211 201 193 195 194 188 177 169 166 174 176 178 200 209 205 204 206 211 212 214 214 212 209 209 209
213 223 210 210 212 206 207 205 210 212 219 239 203 228 245 217 217 216 213 209 206 198 191 185 178 174 172 173 175 175 175 184 189 208 214 211 211 214 218 215 210 212 214 213
220 235 200 206 208 210 212 219 230 255 268 266 242 246 245 212 210 212 205 204 208 199 186 177 173 169 164 168 178 177 169 164 158 168 176 200 216 209 209 212 210 218 229 224
253 263 233 211 210 224 222 213 212 217 226 242 242 238 239 219 213 212 211 211 210 195 182 172 173 164 162 166 165 154 151 159 154 122 126 140 198 226 214 174 201 226 258 264
242 245 238 214 209 210 208 215 221 224 222 226 248 245 227 219 214 210 208 209 197 185 179 177 176 168 165 165 164 160 156 146 136 134 132 119 103 63 93 132 198 239 265 292
228 238 241 235 237 236 227 223 218 226 233 233 251 256 317 328 271 222 220 207 188 177 172 172 175 172 175 177 172 169 159 152 162 161 154 149 132 125 140 219 302 313 291 300
219 218 237 250 231 222 229 231 230 235 245 239 243 258 281 320 314 289 239 214 197 179 177 177 187 189 190 184 180 176 170 167 167 160 161 159 157 150 157 270 333 345 337 325
259 235 229 236 250 244 241 240 235 234 239 246 245 258 269 273 273 264 254 239 229 225 215 205 210 211 201 194 188 179 177 170 167 159 162 167 173 152 137 57 25 1 351 344
233 244 247 262 275 274 264 254 241 238 240 247 255 257 261 262 260 256 253 251 246 241 235 222 218 214 203 200 203 194 189 178 164 166 175 180 127 76 62 46 28 17 10 8
235 249 259 263 265 267 266 258 253 248 245 248 257 261 261 267 266 260 250 248 256 251 245 240 230 216 210 208 201 196 196 182 163 170 176 134 97 78 65 30 16 32 26 24
236 235 247 257 260 274 255 240 242 246 245 245 251 257 269 267 262 256 250 241 239 242 238 237 236 225 217 210 194 189 184 149 146 153 144 119 113 114 68 46 39 39 25 31
231 235 245 258 252 242 243 233 238 246 250 251 256 263 262 265 266 255 243 243 248 247 240 237 237 231 216 189 171 159 140 141 148 142 129 110 117 133 72 72 57 30 31 30
221 222 231 232 240 257 262 249 237 246 255 256 263 268 270 271 273 265 267 257 253 254 239 223 216 210 186 170 159 150 146 147 150 158 152 143 147 156 125 95 18 14 22 27
217 216 225 233 239 240 246 252 258 253 256 271 280 284 288 294 273 272 302 298 297 326 342 310 131 108 124 139 131 144 157 158 173 182 176 154 150 164 165 153 51 29 37 36
201 213 222 235 246 253 257 269 296 231 256 302 298 296 297 280 273 288 314 329 324 311 314 350 85 118 127 113 123 142 153 178 177 146 135 118 114 129 124 88 73 73 66 58
204 209 214 221 236 248 261 245 213 254 303 318 321 312 304 298 304 319 327 326 347 358 8 30 48 53 61 98 130 145 163 135 91 114 117 108 99 102 101 95 70 70 83 81
219 217 219 218 229 251 273 244 264 293 292 302 312 314 307 299 299 308 314 323 334 356 4 31 66 57 37 60 115 147 118 85 103 114 126 130 117 99 101 114 106 82 85 104
244 240 250 261 263 270 282 288 300 309 290 299 302 304 306 294 295 304 307 321 335 348 359 31 62 69 27 29 61 74 63 71 119 143 148 141 138 112 91 96 114 131 135 117
247 252 254 260 268 279 267 272 290 303 308 308 310 313 308 296 294 297 293 296 301 325 360 41 76 127 11 29 41 43 58 91 135 155 147 146 140 128 128 107 121 160 187 188
230 235 244 255 254 255 269 286 303 296 294 298 301 308 316 304 292 292 281 283 281 223 77 71 64 77 40 43 26 12 31 118 154 156 142 142 132 124 128 123 45 27 23 26